Vertical_Velocity
-1 -2 -0 -1 8 5 3 5 1 2 2 5 2 0 1 2 2 -2 3 -1 1 0
4 -2 -0 -1 -4 6 7 9 5 3 4 5 4 3 -2 3 -2 -2 1 2 -1 -2
1 1 3 3 6 4 5 3 6 3 5 4 5 5 -1 1 -2 1 1 1 -2 -4
4 7 2 -2 2 -0 4 5 6 11 10 2 5 2 2 -1 1 3 1 -0 -2 -5
9 6 1 -3 -3 -0 3 2 -1 1 11 3 5 2 -1 3 2 3 1 -1 -3 3
4 12 3 -2 -2 3 3 3 -0 1 4 3 -2 0 -2 -0 3 3 0 -1 1 4
1 -3 0 3 3 0 2 2 4 0 -2 1 1 -0 1 3 2 0 1 14 2 2
4 3 7 1 1 2 4 3 1 2 2 0 1 1 6 0 -2 1 15 -2 2 0
-2 -1 -1 2 -1 2 2 2 4 1 1 -0 1 3 -1 -2 -1 5 3 -2 1 19
2 0 -0 -3 -3 -2 -0 -1 1 0 -0 1 -1 -4 -4 -2 10 -2 3 4 5 1
1 3 4 3 5 3 4 3 1 1 2 -2 -1 -3 23 -2 3 11 6 8 4 7
1 8 12 2 -3 -0 1 1 3 -4 -3 3 10 5 3 7 10 8 5 4 6 5
-3 -2 1 4 3 6 0 2 1 6 13 11 3 5 14 10 1 -2 3 -1 -5 -2
1 -2 12 7 9 8 2 8 7 5 2 3 4 2 2 -1 2 -1 -2 -0 -2 -3
Height
5690 5691 5693 5696 5697 5700 5703 5706 5707 5710 5712 5714 5715 5717 5718 5719 5720 5719 5719 5719 5717 5716
5673 5674 5676 5678 5680 5685 5687 5690 5693 5696 5699 5702 5703 5705 5706 5708 5709 5708 5708 5707 5706 5706
5653 5654 5657 5659 5663 5668 5672 5677 5680 5684 5688 5689 5691 5692 5692 5694 5695 5695 5696 5696 5695 5694
5632 5634 5637 5641 5647 5652 5657 5661 5665 5670 5674 5676 5679 5680 5680 5681 5682 5683 5684 5683 5683 5682
5611 5614 5618 5623 5630 5637 5642 5646 5650 5655 5659 5663 5667 5669 5670 5670 5670 5671 5671 5672 5671 5672
5591 5596 5600 5606 5615 5622 5628 5634 5638 5643 5646 5649 5652 5655 5656 5658 5659 5660 5660 5660 5659 5658
5575 5580 5585 5592 5600 5607 5614 5620 5625 5629 5633 5637 5640 5643 5645 5647 5648 5648 5649 5649 5644 5643
5564 5568 5574 5580 5586 5594 5601 5607 5613 5618 5623 5626 5630 5632 5635 5636 5636 5636 5638 5636 5634 5631
5561 5564 5568 5573 5579 5584 5589 5596 5603 5609 5614 5618 5621 5623 5625 5626 5627 5626 5625 5623 5621 5617
5561 5563 5567 5570 5574 5579 5583 5589 5596 5602 5607 5611 5614 5616 5617 5616 5617 5615 5613 5610 5607 5604
5563 5564 5566 5569 5573 5574 5579 5584 5590 5595 5599 5603 5606 5607 5606 5607 5606 5605 5601 5597 5594 5590
5566 5567 5568 5571 5574 5575 5578 5582 5587 5589 5593 5596 5596 5598 5599 5597 5595 5594 5590 5586 5583 5577
5570 5570 5572 5574 5574 5577 5579 5581 5584 5586 5587 5589 5591 5592 5590 5588 5586 5584 5581 5576 5570 5565
5575 5576 5576 5577 5578 5580 5581 5581 5583 5584 5585 5585 5585 5584 5582 5579 5577 5574 5569 5564 5558 5550